TimeCDT,TemperatureF,Dew PointF,Humidity,Sea Level PressureIn,VisibilityMPH,Wind Direction,Wind SpeedMPH,Gust SpeedMPH,PrecipitationIn,Events,Conditions,WindDirDegrees,DateUTC
12:51 AM,75.9,70.0,82,29.68,9.0,SSE,23.0,32.2,N/A,,Overcast,150,2013-04-10 05:51:00
1:51 AM,75.9,70.0,82,29.68,10.0,SSE,26.5,33.4,N/A,,Overcast,150,2013-04-10 06:51:00
2:51 AM,77.0,70.0,79,29.66,10.0,SSE,24.2,33.4,N/A,,Overcast,150,2013-04-10 07:51:00
3:51 AM,78.1,70.0,76,29.63,10.0,SSE,27.6,34.5,N/A,,Overcast,150,2013-04-10 08:51:00
4:39 AM,75.2,69.8,83,29.62,10.0,SSE,24.2,34.5,N/A,,Overcast,150,2013-04-10 09:39:00
4:51 AM,75.0,70.0,84,29.61,10.0,SE,24.2,33.4,N/A,,Overcast,140,2013-04-10 09:51:00
5:42 AM,75.2,69.8,83,29.63,10.0,SE,21.9,-,N/A,,Overcast,140,2013-04-10 10:42:00
5:51 AM,75.9,70.0,82,29.62,10.0,SSE,20.7,28.8,N/A,,Overcast,150,2013-04-10 10:51:00
6:51 AM,75.0,70.0,84,29.63,10.0,SSE,21.9,-,N/A,,Overcast,150,2013-04-10 11:51:00
7:51 AM,75.9,70.0,82,29.63,8.0,SSE,23.0,31.1,N/A,,Overcast,160,2013-04-10 12:51:00
8:51 AM,77.0,70.0,79,29.66,9.0,South,20.7,-,N/A,,Overcast,170,2013-04-10 13:51:00
9:51 AM,78.1,70.0,76,29.70,10.0,South,16.1,-,N/A,,Overcast,190,2013-04-10 14:51:00
10:27 AM,75.2,69.8,83,29.71,10.0,South,11.5,-,N/A,,Overcast,190,2013-04-10 15:27:00
10:51 AM,75.0,70.0,84,29.71,10.0,South,8.1,-,N/A,,Overcast,190,2013-04-10 15:51:00
11:34 AM,75.2,69.8,83,29.72,10.0,South,4.6,-,N/A,,Overcast,170,2013-04-10 16:34:00
11:51 AM,75.0,70.0,84,29.72,10.0,Calm,Calm,-,N/A,,Overcast,0,2013-04-10 16:51:00
12:51 PM,75.9,70.0,82,29.71,10.0,Calm,Calm,-,N/A,,Overcast,0,2013-04-10 17:51:00
1:51 PM,87.1,69.1,55,29.70,10.0,NW,19.6,29.9,N/A,,Scattered Clouds,310,2013-04-10 18:51:00
1:53 PM,84.2,64.4,51,29.70,10.0,NW,28.8,33.4,N/A,,Mostly Cloudy,320,2013-04-10 18:53:00
1:55 PM,80.6,60.8,51,29.69,10.0,NW,27.6,36.8,N/A,,Squalls,310,2013-04-10 18:55:00
2:06 PM,75.2,57.2,53,29.70,10.0,NNW,31.1,42.6,N/A,,Mostly Cloudy,340,2013-04-10 19:06:00
2:51 PM,73.9,54.0,50,29.73,10.0,North,29.9,36.8,N/A,,Scattered Clouds,360,2013-04-10 19:51:00
3:14 PM,66.2,51.8,60,29.74,10.0,North,23.0,34.5,N/A,,Overcast,350,2013-04-10 20:14:00
3:51 PM,64.0,51.1,63,29.73,10.0,North,26.5,31.1,N/A,,Overcast,10,2013-04-10 20:51:00
4:51 PM,64.0,51.1,63,29.73,10.0,NNE,26.5,-,N/A,,Overcast,20,2013-04-10 21:51:00
5:51 PM,63.0,50.0,63,29.73,10.0,North,24.2,28.8,N/A,,Overcast,10,2013-04-10 22:51:00
6:51 PM,63.0,48.9,60,29.73,10.0,NNE,23.0,-,N/A,,Overcast,20,2013-04-10 23:51:00
7:51 PM,64.0,48.9,58,29.74,10.0,NNE,19.6,28.8,N/A,,Overcast,20,2013-04-11 00:51:00
8:51 PM,63.0,48.9,60,29.76,10.0,North,20.7,28.8,N/A,,Overcast,10,2013-04-11 01:51:00
9:51 PM,62.6,48.2,59,29.78,10.0,NNE,25.3,33.4,N/A,,Overcast,20,2013-04-11 02:51:00
10:51 PM,61.0,46.9,60,29.81,10.0,North,21.9,-,0.00,Rain,Light Rain,10,2013-04-11 03:51:00
11:51 PM,61.0,46.9,60,29.84,10.0,North,19.6,24.2,0.00,,Overcast,360,2013-04-11 04:51:00